"Pseudo-MPEC" for P10UI0z

Created 2019 Dec 12 18:07:05 UT using Find_Orb

Click here for an explanation of pseudo-MPECs

 
 Astrometry: 
     P10UI0z  C2019 11 267jW=iu$unmAstrometryY]c.[6rwF]:9#Uy)Q)0y!DWg,vbiv7,^F51
     P10UI0z  C2019 11 26swVJC9redacted;\s[yclickJc$rd#O\jhere[X-5G)MTAQx$tkBF51
     P10UI0z  C2019 11 260b;Fa?%wfor6i?LkT*xj,[q`KkTOeFqOexplanationbfO#_n(\^F51

Station data:
(F51) Pan-STARRS 1, Haleakala  (N20.707235 W156.255910)  US/Hawaii.
   Observers N. Primak, A. Schultz, S. Watters, J. Thiel, T. Goggia. Measurer
   PS1 Science Consortium. 1.8-m Ritchey-Chrétien + CCD.

Orbital elements:  P10UI0z
   Perihelion 2019 Sep 2.279473 +/- 272 TT =  6:42:26 (JD 2458728.779473)
Epoch 2019 Nov 27.0 TT = JDT 2458814.5   Earth MOID: 0.2584   AutoNEOCP
M  56.94229444 +/- 80               (J2000 ecliptic)
n   0.66427840 +/- 0.332            Peri.   21.24750 +/- 100
a   1.30087617 +/- 0.433            Node   349.02412 +/- 57
e   0.0295198 +/- 0.264             Incl.   12.57730 +/- 23
P   1.48/541.93d           H 22.1   G  0.15   U 12.0  SR
q 1.26247453 +/- 0.964    Q 1.33927782 +/- 33.8
From 3 observations 2019 Nov. 26 (27.7 min); mean residual 0".05
Residuals in arcseconds: 
191126 F51  .03-  .04+    191126 F51  .06+  .08-    191126 F51  .03-  .04+    

Ephemerides (geocentric):
Date (UTC) HH   RA              Dec         delta   r     elong  mag " sig PA
---- -- -- --  -------------   -----------  ------ ------ -----  --- ---- ---
2019 12 12 18  05 09 56.955   +68 59 44.09  .39059 1.2871 134.1 22.0  30d 115
2019 12 12 19  05 09 47.946   +68 59 34.44  .39059 1.2871 134.1 22.0  30d 115
2019 12 12 20  05 09 38.940   +68 59 24.65  .39060 1.2871 134.1 22.0  30d 115
2019 12 12 21  05 09 29.938   +68 59 14.72  .39061 1.2872 134.1 22.0  30d 115
2019 12 12 22  05 09 20.939   +68 59 04.65  .39061 1.2872 134.1 22.0  30d 115
2019 12 12 23  05 09 11.943   +68 58 54.43  .39062 1.2872 134.1 22.0  30d 114
2019 12 13 00  05 09 02.951   +68 58 44.09  .39062 1.2872 134.1 22.0  30d 114
2019 12 13 01  05 08 53.963   +68 58 33.60  .39063 1.2872 134.1 22.0  30d 114
2019 12 13 02  05 08 44.978   +68 58 22.97  .39064 1.2872 134.1 22.0  30d 114
2019 12 13 03  05 08 35.997   +68 58 12.20  .39064 1.2873 134.1 22.0  30d 114
2019 12 13 04  05 08 27.020   +68 58 01.30  .39065 1.2873 134.1 22.0  30d 114
2019 12 13 05  05 08 18.047   +68 57 50.25  .39066 1.2873 134.1 22.0  31d 114
2019 12 13 06  05 08 09.078   +68 57 39.07  .39067 1.2873 134.1 22.0  31d 114
2019 12 13 07  05 08 00.113   +68 57 27.75  .39067 1.2873 134.1 22.0  31d 114
2019 12 13 08  05 07 51.152   +68 57 16.29  .39068 1.2873 134.1 22.0  31d 114
2019 12 13 09  05 07 42.196   +68 57 04.69  .39069 1.2874 134.1 22.0  31d 114
2019 12 13 10  05 07 33.244   +68 56 52.95  .39070 1.2874 134.1 22.0  31d 114
2019 12 13 11  05 07 24.296   +68 56 41.08  .39070 1.2874 134.1 22.0  31d 114
2019 12 13 12  05 07 15.352   +68 56 29.06  .39071 1.2874 134.1 22.0  31d 114
2019 12 13 13  05 07 06.413   +68 56 16.91  .39072 1.2874 134.1 22.0  31d 114
2019 12 13 14  05 06 57.479   +68 56 04.62  .39073 1.2875 134.1 22.0  31d 114
2019 12 13 15  05 06 48.549   +68 55 52.19  .39074 1.2875 134.2 22.0  31d 114
2019 12 13 16  05 06 39.624   +68 55 39.62  .39075 1.2875 134.2 22.0  31d 114
2019 12 13 17  05 06 30.704   +68 55 26.91  .39075 1.2875 134.2 22.0  31d 114
2019 12 13 18  05 06 21.788   +68 55 14.07  .39076 1.2875 134.2 22.0  31d 114
2019 12 13 19  05 06 12.878   +68 55 01.09  .39077 1.2875 134.2 22.0  31d 114
2019 12 13 20  05 06 03.972   +68 54 47.97  .39078 1.2876 134.2 22.0  31d 114
2019 12 13 21  05 05 55.072   +68 54 34.71  .39079 1.2876 134.2 22.0  31d 114
2019 12 13 22  05 05 46.177   +68 54 21.31  .39080 1.2876 134.2 22.0  32d 114
2019 12 13 23  05 05 37.287   +68 54 07.78  .39081 1.2876 134.2 22.0  32d 114
2019 12 14 00  05 05 28.402   +68 53 54.10  .39082 1.2876 134.2 22.0  32d 114
2019 12 14 01  05 05 19.522   +68 53 40.29  .39083 1.2876 134.2 22.0  32d 114
2019 12 14 02  05 05 10.648   +68 53 26.34  .39084 1.2877 134.2 22.0  32d 114
2019 12 14 03  05 05 01.780   +68 53 12.26  .39085 1.2877 134.2 22.0  32d 114
2019 12 14 04  05 04 52.917   +68 52 58.04  .39086 1.2877 134.2 22.0  32d 114
2019 12 14 05  05 04 44.059   +68 52 43.68  .39087 1.2877 134.2 22.0  32d 114
2019 12 14 06  05 04 35.208   +68 52 29.18  .39088 1.2877 134.2 22.0  32d 114
2019 12 14 07  05 04 26.362   +68 52 14.54  .39089 1.2878 134.2 22.0  32d 114
2019 12 14 08  05 04 17.522   +68 51 59.77  .39090 1.2878 134.2 22.0  32d 114
2019 12 14 09  05 04 08.687   +68 51 44.86  .39091 1.2878 134.2 22.0  32d 114
2019 12 14 10  05 03 59.859   +68 51 29.81  .39092 1.2878 134.2 22.0  32d 114
2019 12 14 11  05 03 51.037   +68 51 14.63  .39093 1.2878 134.2 22.0  32d 114
2019 12 14 12  05 03 42.221   +68 50 59.31  .39094 1.2878 134.2 22.0  32d 114
2019 12 14 13  05 03 33.411   +68 50 43.85  .39095 1.2879 134.2 22.0  32d 114
2019 12 14 14  05 03 24.607   +68 50 28.25  .39097 1.2879 134.2 22.0  32d 114
2019 12 14 15  05 03 15.809   +68 50 12.52  .39098 1.2879 134.2 22.0  32d 114
2019 12 14 16  05 03 07.018   +68 49 56.65  .39099 1.2879 134.2 22.0  32d 114
2019 12 14 17  05 02 58.233   +68 49 40.65  .39100 1.2879 134.2 22.0  32d 114